CST,Max TemperatureF,Mean TemperatureF,Min TemperatureF,Max Dew PointF,MeanDew PointF,Min DewpointF,Max Humidity, Mean Humidity, Min Humidity, Max Sea Level PressureIn, Mean Sea Level PressureIn, Min Sea Level PressureIn, Max VisibilityMiles, Mean VisibilityMiles, Min VisibilityMiles, Max Wind SpeedMPH, Mean Wind SpeedMPH, Max Gust SpeedMPH,PrecipitationIn, CloudCover, Events, WindDirDegrees
2014-1-1,25,16,7,16,12,4,92,77,71,30.50,30.22,29.98,10,6,0,22,12,30,0.02,6,Fog-Snow,3
2014-1-2,43,24,5,26,15,2,92,78,47,30.49,30.39,30.30,10,10,7,13,6,,0.00,1,,280
2014-1-3,50,31,11,30,22,9,89,70,46,30.26,29.88,29.62,10,9,7,18,9,25,0.00,0,,191
2014-1-4,41,30,19,29,18,2,81,67,47,30.26,29.98,29.63,10,7,1,25,16,37,T,6,Snow,8
2014-1-5,19,8,-4,6,1,-13,80,65,50,30.71,30.47,30.27,10,8,2,20,13,26,T,5,Snow,360
2014-1-6,22,7,-9,8,-7,-16,72,57,30,30.69,30.55,30.27,10,10,10,15,7,20,0.00,1,,269
2014-1-7,54,37,19,21,14,10,69,50,19,30.23,30.11,30.02,10,10,10,10,8,,0.00,0,,309
2014-1-8,30,21,11,21,17,9,88,74,64,30.35,30.25,30.08,10,9,4,20,12,25,0.00,6,,72
2014-1-9,34,21,7,29,17,4,92,84,75,30.31,30.07,29.83,9,6,2,16,4,21,0.00,5,,156
2014-1-10,39,34,29,34,30,21,100,91,72,29.81,29.69,29.61,10,5,0,15,8,22,0.01,7,Fog-Rain-Snow,277
2014-1-11,56,43,29,26,22,18,72,48,23,30.01,29.88,29.70,10,10,10,16,12,23,0.00,1,,268
2014-1-12,56,44,32,29,22,15,64,43,26,29.85,29.63,29.51,10,10,10,23,10,43,0.00,1,,289
2014-1-13,56,41,26,22,18,15,69,45,22,29.99,29.90,29.83,10,10,10,20,13,29,0.00,2,,282
2014-1-14,50,38,26,29,19,11,78,49,26,30.38,30.21,29.86,10,10,10,30,16,39,T,2,,317
2014-1-15,62,44,26,22,20,18,78,48,20,30.36,30.10,29.89,10,10,10,20,8,31,0.00,4,,269
2014-1-16,50,39,28,23,13,1,55,37,14,30.27,30.10,29.94,10,10,7,39,18,51,0.00,2,,321
2014-1-17,50,34,18,18,14,10,68,47,25,30.30,30.16,29.96,10,10,10,15,11,23,0.00,1,,276
2014-1-18,51,35,19,21,17,13,71,44,25,30.22,30.06,29.91,10,10,9,38,16,52,0.00,0,,309
2014-1-19,69,45,21,19,15,10,60,39,14,30.13,29.98,29.87,10,10,10,20,9,30,0.00,0,,279
2014-1-20,55,37,19,18,15,9,62,42,21,30.51,30.18,29.87,10,10,10,25,11,39,0.00,0,,337
2014-1-21,49,26,3,17,8,-1,80,54,27,30.54,30.31,30.08,10,10,10,14,7,20,0.00,0,,274
2014-1-22,44,28,11,22,14,-8,77,58,41,30.62,30.30,30.17,10,10,10,22,10,33,0.00,3,,355
2014-1-23,21,13,5,2,-9,-14,67,41,21,30.94,30.78,30.62,10,10,10,16,11,,0.00,2,,310
2014-1-24,60,36,11,23,15,3,70,43,22,30.57,30.18,29.96,10,10,10,22,13,36,0.00,2,,274
2014-1-25,57,46,34,33,26,20,52,44,34,30.12,29.99,29.80,10,10,10,20,11,25,0.00,0,,284
2014-1-26,63,41,19,29,24,21,64,46,23,30.34,29.90,29.70,10,9,2,41,15,54,0.00,3,,322
2014-1-27,19,13,7,2,-5,-7,76,45,34,30.53,30.46,30.36,10,10,10,18,9,25,0.00,5,,22
2014-1-28,30,18,6,6,1,-6,84,58,25,30.53,30.40,30.29,10,10,10,15,6,21,0.00,2,,284
2014-1-29,57,31,5,22,7,0,80,44,12,30.26,29.96,29.55,10,10,10,16,6,25,0.00,0,,232
2014-1-30,51,38,25,31,20,13,88,58,32,29.99,29.78,29.44,10,7,1,25,14,33,0.01,6,Snow,29
2014-1-31,24,22,19,19,15,13,89,82,74,30.14,29.98,29.87,10,7,1,17,11,,0.06,8,Snow,55